Regional Weather Roundup
Issued by NWS

Home | Current Version | Previous Version | Graphics & Text | Print | Product List | Glossary On
Versions: 1 2 3 4 5 6 7 8 9 10 11 12 13 14 15 16 17 18 19 20 21 22 23 24 25 26 27 28 29 30 31 32 33 34 35 36 37 38 39 40 41 42 43 44 45 46 47 48 49 50
287
ASUS43 KFSD 120910
RWRSD

WEATHER ROUNDUP FOR SOUTH DAKOTA
NATIONAL WEATHER SERVICE SIOUX FALLS SD
300 AM CST TUE DEC 12 2017

NOTE: "FAIR" INDICATES FEW OR NO CLOUDS BELOW 12,000 FEET WITH NO
SIGNIFICANT WEATHER AND/OR OBSTRUCTIONS TO VISIBILITY.


SDZ001>005-009-010-012>017-121000-
NORTHWEST AND NORTH CENTRAL SOUTH DAKOTA

CITY           SKY/WX    TMP DP  RH WIND       PRES   REMARKS
BUFFALO          N/A     24  20  84 W13       30.19F WCI  12
FAITH            N/A     24  22  91 W6        30.28F WCI  17
MOBRIDGE       CLOUDY    28  25  88 CALM      30.24F
$$

SDZ012>016-024>037-041>051-057-063-072>074-121000-
SOUTHWEST AND SOUTH CENTRAL SOUTH DAKOTA

CITY           SKY/WX    TMP DP  RH WIND       PRES   REMARKS
RAPID CTY ARPT CLOUDY    21  15  78 CALM      30.31F
PIERRE         CLOUDY    32  31  96 SW5       30.29F WCI  27
CUSTER         CLOUDY    31   2  29 W8        30.28F WCI  23
ELLSWORTH AFB  CLOUDY    19  13  77 CALM      30.29F
PHILIP         CLOUDY    21  20  96 W7        30.33F WCI  12
PINE RIDGE     CLOUDY    14  11  87 CALM      30.33F
SPEARFISH      FAIR      37   7  28 W13       30.28F
WINNER         CLOUDY    36  30  79 W6        30.31F
$$

SDZ004>011-016>023-039-040-121000-
NORTHEAST SOUTH DAKOTA

CITY           SKY/WX    TMP DP  RH WIND       PRES   REMARKS
ABERDEEN       CLOUDY    19  17  92 SW5       30.30F WCI  12
WATERTOWN      CLOUDY    12  10  92 W8        30.26F WCI   0
BROOKINGS      CLOUDY    12   9  87 CALM      30.29F
SISSETON         N/A      9   6  88 CALM      30.28F
$$

SDZ017-020-022-023-036>040-048>070-121000-
SOUTHEAST SOUTH DAKOTA

CITY           SKY/WX    TMP DP  RH WIND       PRES   REMARKS
SIOUX FALLS    CLOUDY    14  11  87 NW6       30.30F WCI   5
HURON          CLOUDY    22  18  85 CALM      30.32F
CHAMBERLAIN    FOG       20  20 100 CALM      30.31F VSB 1/2
MITCHELL       CLOUDY    19  16  88 W6        30.35S WCI  11
YANKTON        CLOUDY    16  13  88 SW9       30.35F WCI   4
$$

ABBREVIATIONS USED IN REMARKS
   TC - TEMPERATURE IN CELSIUS
  WCI - WIND CHILL INDEX
   HX - HEAT INDEX
  VSB - VISIBILITY





USA.gov is the U.S. government's official web portal to all federal, state and local government web resources and services.